TimeEST,TemperatureF,Dew PointF,Humidity,Sea Level PressureIn,VisibilityMPH,Wind Direction,Wind SpeedMPH,Gust SpeedMPH,PrecipitationIn,Events,Conditions,WindDirDegrees,DateUTC
12:15 AM,21.9,19.0,89,30.35,10.0,Calm,Calm,-,N/A,,Clear,0,2013-01-08 05:15:00
12:35 AM,20.7,17.6,88,30.35,10.0,Calm,Calm,-,N/A,,Clear,0,2013-01-08 05:35:00
12:55 AM,20.3,17.4,89,30.34,10.0,Calm,Calm,-,N/A,,Clear,0,2013-01-08 05:55:00
1:15 AM,20.8,18.1,89,30.34,10.0,Calm,Calm,-,N/A,,Clear,0,2013-01-08 06:15:00
1:35 AM,20.8,18.3,90,30.35,10.0,Calm,Calm,-,N/A,,Clear,0,2013-01-08 06:35:00
1:55 AM,19.6,16.5,88,30.35,10.0,Calm,Calm,-,N/A,,Clear,0,2013-01-08 06:55:00
2:15 AM,19.4,16.7,89,30.35,10.0,Calm,Calm,-,N/A,,Clear,0,2013-01-08 07:15:00
2:35 AM,19.4,16.7,89,30.36,10.0,Calm,Calm,-,N/A,,Clear,0,2013-01-08 07:35:00
2:55 AM,19.0,16.2,89,30.35,10.0,Calm,Calm,-,N/A,,Clear,0,2013-01-08 07:55:00
3:15 AM,19.8,16.9,89,30.36,10.0,Calm,Calm,-,N/A,,Clear,0,2013-01-08 08:15:00
3:35 AM,19.0,15.8,87,30.36,10.0,Calm,Calm,-,N/A,,Clear,0,2013-01-08 08:35:00
3:55 AM,18.9,15.8,88,30.35,10.0,Calm,Calm,-,N/A,,Clear,0,2013-01-08 08:55:00
4:15 AM,19.2,16.0,87,30.35,10.0,Calm,Calm,-,N/A,,Clear,0,2013-01-08 09:15:00
4:35 AM,19.2,16.2,88,30.35,10.0,Calm,Calm,-,N/A,,Clear,0,2013-01-08 09:35:00
4:55 AM,19.0,15.8,87,30.35,10.0,Calm,Calm,-,N/A,,Clear,0,2013-01-08 09:55:00
5:15 AM,19.8,17.2,90,30.35,10.0,Calm,Calm,-,N/A,,Clear,0,2013-01-08 10:15:00
5:35 AM,20.3,17.8,90,30.35,10.0,Calm,Calm,-,N/A,,Clear,0,2013-01-08 10:35:00
5:55 AM,21.2,18.9,91,30.35,10.0,Calm,Calm,-,N/A,,Clear,0,2013-01-08 10:55:00
6:15 AM,21.0,18.1,89,30.35,10.0,Calm,Calm,-,N/A,,Clear,0,2013-01-08 11:15:00
6:35 AM,21.0,18.1,89,30.36,10.0,Calm,Calm,-,N/A,,Clear,0,2013-01-08 11:35:00
6:55 AM,20.1,17.4,89,30.37,10.0,Calm,Calm,-,N/A,,Clear,0,2013-01-08 11:55:00
7:15 AM,21.0,18.5,90,30.37,10.0,Calm,Calm,-,N/A,,Clear,0,2013-01-08 12:15:00
7:35 AM,21.7,19.2,90,30.37,10.0,Calm,Calm,-,N/A,,Clear,0,2013-01-08 12:35:00
7:55 AM,21.9,19.2,89,30.39,10.0,Calm,Calm,-,N/A,,Clear,0,2013-01-08 12:55:00
8:15 AM,23.0,20.3,89,30.39,10.0,Calm,Calm,-,N/A,,Clear,0,2013-01-08 13:15:00
8:35 AM,23.4,20.5,89,30.40,7.0,Calm,Calm,-,N/A,,Clear,0,2013-01-08 13:35:00
8:55 AM,24.8,21.9,89,30.41,10.0,Calm,Calm,-,N/A,,Mostly Cloudy,0,2013-01-08 13:55:00
9:15 AM,26.8,23.9,89,30.42,10.0,Calm,Calm,-,N/A,,Overcast,0,2013-01-08 14:15:00
9:55 AM,29.1,25.2,85,30.42,10.0,Calm,Calm,-,N/A,,Mostly Cloudy,0,2013-01-08 14:55:00
10:15 AM,31.3,26.8,83,30.43,10.0,Calm,Calm,-,N/A,,Mostly Cloudy,0,2013-01-08 15:15:00
10:35 AM,32.4,27.1,81,30.42,10.0,ENE,3.5,-,N/A,,Mostly Cloudy,70,2013-01-08 15:35:00
10:55 AM,34.5,28.4,78,30.42,10.0,Calm,Calm,-,N/A,,Scattered Clouds,0,2013-01-08 15:55:00
11:15 AM,36.7,28.8,73,30.42,10.0,Calm,Calm,-,N/A,,Scattered Clouds,0,2013-01-08 16:15:00
11:35 AM,40.1,29.3,65,30.40,10.0,Calm,Calm,-,N/A,,Scattered Clouds,0,2013-01-08 16:35:00
11:55 AM,42.1,29.1,60,30.39,10.0,Calm,Calm,-,N/A,,Scattered Clouds,0,2013-01-08 16:55:00
12:15 PM,44.4,28.6,54,30.37,10.0,Calm,Calm,-,N/A,,Clear,0,2013-01-08 17:15:00
12:55 PM,47.3,29.1,49,30.35,10.0,Calm,Calm,-,N/A,,Clear,0,2013-01-08 17:55:00
1:15 PM,49.8,31.5,49,30.33,10.0,East,6.9,-,N/A,,Clear,90,2013-01-08 18:15:00
1:55 PM,52.9,34.3,49,30.32,10.0,SE,3.5,-,N/A,,Clear,140,2013-01-08 18:55:00
2:15 PM,53.4,35.1,50,30.30,10.0,South,6.9,-,N/A,,Clear,190,2013-01-08 19:15:00
2:55 PM,55.9,38.1,51,30.30,10.0,SE,4.6,-,N/A,,Clear,140,2013-01-08 19:55:00
3:15 PM,55.9,38.5,52,30.31,10.0,South,6.9,-,N/A,,Clear,190,2013-01-08 20:15:00
3:35 PM,54.9,39.2,56,30.32,10.0,SSE,4.6,-,N/A,,Scattered Clouds,150,2013-01-08 20:35:00
3:55 PM,54.5,39.4,57,30.30,10.0,Calm,Calm,-,N/A,,Clear,0,2013-01-08 20:55:00
4:15 PM,55.9,39.4,54,30.30,10.0,East,4.6,-,N/A,,Clear,80,2013-01-08 21:15:00
4:35 PM,55.0,39.2,55,30.30,10.0,ENE,4.6,-,N/A,,Clear,70,2013-01-08 21:35:00
4:55 PM,53.6,38.7,57,30.30,10.0,Calm,Calm,-,N/A,,Clear,0,2013-01-08 21:55:00
5:15 PM,49.1,38.1,66,30.31,10.0,Calm,Calm,-,N/A,,Clear,0,2013-01-08 22:15:00
5:35 PM,45.7,37.2,72,30.31,10.0,Calm,Calm,-,N/A,,Mostly Cloudy,0,2013-01-08 22:35:00
5:55 PM,46.0,37.8,73,30.31,10.0,Calm,Calm,-,N/A,,Overcast,0,2013-01-08 22:55:00
6:15 PM,44.2,37.9,79,30.32,10.0,West,3.5,-,N/A,,Overcast,260,2013-01-08 23:15:00
6:35 PM,42.1,36.5,81,30.32,10.0,Calm,Calm,-,N/A,,Scattered Clouds,0,2013-01-08 23:35:00
6:55 PM,39.0,34.5,84,30.34,10.0,Calm,Calm,-,N/A,,Clear,0,2013-01-08 23:55:00
7:15 PM,37.0,34.2,89,30.34,10.0,Calm,Calm,-,N/A,,Clear,0,2013-01-09 00:15:00
7:35 PM,35.6,32.9,90,30.36,10.0,Calm,Calm,-,N/A,,Clear,0,2013-01-09 00:35:00
7:55 PM,33.3,31.1,92,30.35,10.0,Calm,Calm,-,N/A,,Clear,0,2013-01-09 00:55:00
8:15 PM,33.6,32.0,94,30.35,10.0,WSW,3.5,-,N/A,,Clear,250,2013-01-09 01:15:00
8:35 PM,33.4,32.0,94,30.36,10.0,WSW,4.6,-,N/A,,Clear,240,2013-01-09 01:35:00
8:55 PM,32.4,31.3,96,30.34,7.0,Calm,Calm,-,N/A,,Clear,0,2013-01-09 01:55:00
9:15 PM,33.4,32.2,95,30.36,7.0,Calm,Calm,-,N/A,,Clear,0,2013-01-09 02:15:00
9:35 PM,33.6,32.5,96,30.37,7.0,Calm,Calm,-,N/A,,Clear,0,2013-01-09 02:35:00
9:55 PM,31.6,30.4,95,30.37,7.0,Calm,Calm,-,N/A,,Scattered Clouds,0,2013-01-09 02:55:00
10:35 PM,33.8,32.5,95,30.37,7.0,Calm,Calm,-,N/A,,Overcast,0,2013-01-09 03:35:00
10:55 PM,36.0,34.9,96,30.37,7.0,Calm,Calm,-,N/A,,Overcast,0,2013-01-09 03:55:00
11:15 PM,36.7,35.6,96,30.37,10.0,Calm,Calm,-,N/A,,Overcast,0,2013-01-09 04:15:00
11:35 PM,37.6,36.3,95,30.37,10.0,Calm,Calm,-,N/A,,Overcast,0,2013-01-09 04:35:00
11:55 PM,38.5,36.9,94,30.37,10.0,Calm,Calm,-,N/A,,Overcast,0,2013-01-09 04:55:00